STARLINK E (59926 NORAD) Tracking and Keplerian Element Data

This shows tracking and keplerian element data for the satellite.

Feedback or suggestion? Click here.




ElementValue
Catalog59926
NameSTARLINK E
Epoch Orbit234
Epoch Day160.25001157
Epoch Year2024
RAAN21.959
Inclination43.0026
Eccentricity0.0001803
Argument of Perigee274.6877
Mean Anonmoly267.315
Mean Motion15.92030388
Decay Rate-0.00932109
L11 59926U 24106E 24160.25001157 -.00932109 26591-3 -27009-2 0 9990
L22 59926 43.0026 21.9590 0001803 274.6877 267.3150 15.92030388 2349



Live tracking and technical data element details for STARLINK E (NORAD 59926). STARLINK E can be tracked NOW for your location showing map with azimuth and elevation plus other details from your city location.







IsCatalogInMostPopularTable: catalog: 59926, numindb: 8
Update: records affected: 1



GetName: 59926 STARLINK E

Hit Count: updated at: Tue, 16 Jul 2024 02:58:55 GMT